{"data":{"norad_id":62414,"epoch":"2026-09-21T17:25:42.945600Z","epoch_age_seconds":68629,"freshness":"FRESH","line1":"1 62414U 24249F   26264.72619150  .00088199  00000+0  68277-3 0  9996","line2":"2 62414  43.0003  65.8718 0002932 269.1139  90.9393 15.70864960100315","mean_motion":15.7086496,"eccentricity":0.0002932,"inclination_deg":43.0003,"raan_deg":65.8718,"arg_perigee_deg":269.1139,"mean_anomaly_deg":90.9393,"bstar":0.00068277,"rev_number":10031,"period_min":91.669241893332,"perigee_km":354.44914895811,"apogee_km":358.39829536559,"semimajor_km":6734.5607221618,"source":"CELESTRAK","updated_at":"2026-09-22T09:00:49.576252Z"}}